[[{"header":{"parameterUnit":"m.s-1","parameterCategory":1,"la1":30.2992,"la2":30.254,"lo1":-89.0895,"lo2":-89.0443,"dy":0.0025,"dx":0.0025,"nx":19,"ny":19,"refTime":"2026-05-23T21:00:00:Z","depth":0,"parameterNumber":2,"parameterNumberName":"U-component_of_WINDS"},"data":[0,0,0,0.9865,0.9861,0.9651,0.965,0.9429,0.9428,0,0,0,0,0,0,0,0,0,0,0,0.9958,0.9957,0.9865,0.986,0.9651,0.965,0.943,0.9428,0,0,0,0,0,0,0,0,0,0,0,0.9958,0.9957,0.9957,0.986,0.9651,0.9649,0.943,0.9571,0,0,0,0,0,0,0,0,0,0,0.9766,0.9883,0.9957,0.9957,0.9859,0.9651,0.9649,0.9577,0.9562,0.9545,0,0.954,0,0.9481,0.9416,0.9416,0,0,0,0.9837,0.9896,0.9811,0.9957,0.9857,0.9652,0.9739,0.9568,0.9551,0.9526,0.9537,0.9527,0.9477,0.9415,0.9414,0.9398,0.9399,0,0,0.9849,0.9936,0.9823,0.9802,0.9839,0.9746,0.9733,0.9557,0.9574,0.9536,0.9521,0.9474,0.9414,0.9413,0.9397,0.9398,0,0,0,0.9898,0.9946,0.9864,0.9812,0.9771,0.974,0.9725,0.9582,0.9548,0.9518,0.9471,0.9413,0.9411,0.9396,0.9398,0.9534,0,0,0,0.9904,0.9974,0.987,0.9922,0.9775,0.9674,0.9755,0.956,0.9537,0.9472,0.9413,0.9409,0.9395,0.9397,0.9527,0.9584,0,0,0,0.9961,0.998,0.9961,0.9927,0.984,0.9675,0.963,0.9553,0.951,0.9415,0.9409,0.9394,0.9396,0.9522,0.9574,0.9605,0,0,0,1.0047,1.0085,0.9964,0.9988,0.9843,0.9761,0.963,0.9564,0.95,0.9412,0.9395,0.9397,0.952,0.9568,0.96,0.9648,0.9676,0,0,1.0144,1.01,1.0106,0.9992,0.9955,0.9786,0.9766,0.9624,0.9534,0.9448,0.9446,0.9529,0.9574,0.9604,0.9801,0.9824,0,0,0,1.0167,1.0173,1.0144,1.0087,0.9979,0.989,0.9741,0.9687,0.9609,0.9509,0.9545,0.9569,0.9583,0.9602,0.9622,0.9628,0.941,0.9409,0.9409,1.0432,1.0314,1.0317,1.0174,1.012,0.9964,0.9908,0.9809,0.9707,0.9717,0.9692,0.9826,0.9852,0.9866,0.9874,0.9707,0.9707,0.9708,0.9708,1.0564,1.0554,1.0414,1.0368,1.0242,1.0201,1.0051,0.9979,0.9921,0.9836,0.9842,0.9761,0.9895,0.9895,0.9717,0.9715,0.9714,0.9713,0.9713,1.0725,1.07,1.0633,1.0536,1.0474,1.0326,1.0276,1.0163,1.0056,1.0063,1.0023,1.002,1.0004,1.0051,1.0052,1.0052,1.0052,1.0053,1.0053,1.092,1.084,1.0813,1.0699,1.0646,1.0561,1.0403,1.0346,1.0255,1.0177,1.0176,1.0073,0.9929,0.9896,1.006,1.0059,1.0058,1.0057,1.0057,1.11,1.104,1.0999,1.0946,1.0801,1.0746,1.06,1.0495,1.0432,1.0411,1.0304,1.0216,1.0163,1.0147,1.0119,1.033,1.033,1.033,1.033,1.1237,1.1198,1.1129,1.1051,1.0961,1.0825,1.0779,1.0655,1.0517,1.047,1.0422,1.0374,1.0363,1.0316,1.0296,1.0268,1.0512,1.0512,1.0512,1.1341,1.1287,1.1272,1.1137,1.1014,1.0911,1.0864,1.0778,1.0609,1.0517,1.043,1.0422,1.0344,1.0325,1.0236,1.0207,1.0153,0,0]},{"header":{"parameterUnit":"m.s-1","parameterCategory":1,"la1":30.2992,"la2":30.254,"lo1":-89.0895,"lo2":-89.0443,"dy":0.0025,"dx":0.0025,"nx":19,"ny":19,"refTime":"2026-05-23T21:00:00:Z","depth":0,"parameterNumber":3,"parameterNumberName":"V-component_of_WINDS"},"data":[0,0,0,3.6259,3.6254,3.5977,3.5975,3.5625,3.5622,0,0,0,0,0,0,0,0,0,0,0,3.6356,3.6354,3.626,3.6253,3.5977,3.5975,3.5625,3.5622,0,0,0,0,0,0,0,0,0,0,0,3.6357,3.6355,3.6353,3.6252,3.5977,3.5975,3.5626,3.5831,0,0,0,0,0,0,0,0,0,0,3.6098,3.6205,3.6355,3.6353,3.6251,3.5977,3.5975,3.584,3.5818,3.5756,0,3.5715,0,3.5664,3.56,3.5598,0,0,0,3.6239,3.6224,3.6137,3.6352,3.6249,3.5978,3.6098,3.5828,3.5802,3.5726,3.571,3.5696,3.5658,3.5598,3.5596,3.5308,3.5307,0,0,3.6255,3.6311,3.6155,3.6122,3.6178,3.6107,3.6089,3.5812,3.5794,3.5709,3.5688,3.5652,3.5595,3.5593,3.5308,3.5308,0,0,0,3.6308,3.6323,3.6242,3.6136,3.6087,3.6099,3.6079,3.5806,3.5776,3.5684,3.5648,3.5593,3.5589,3.5309,3.5308,3.5331,0,0,0,3.6317,3.6354,3.625,3.6281,3.6093,3.5945,3.6079,3.5795,3.5762,3.565,3.5593,3.5586,3.531,3.5309,3.5332,3.533,0,0,0,3.6368,3.636,3.6326,3.6285,3.6169,3.5949,3.5902,3.5786,3.574,3.5598,3.5585,3.531,3.5309,3.5333,3.5331,3.5269,0,0,0,3.6438,3.6347,3.6327,3.621,3.6172,3.597,3.5903,3.5747,3.5628,3.5592,3.531,3.5308,3.5333,3.5332,3.527,3.5225,3.5214,0,0,3.6354,3.6339,3.6266,3.624,3.6057,3.6007,3.5821,3.5654,3.5583,3.54,3.5392,3.5332,3.5332,3.5269,3.5131,3.5123,0,0,0,3.6258,3.6206,3.6145,3.6039,3.5915,3.5804,3.5661,3.5597,3.5441,3.5506,3.5292,3.529,3.525,3.5225,3.5218,3.5177,3.5301,3.5301,3.5301,3.6218,3.614,3.601,3.5897,3.5794,3.5647,3.5552,3.5439,3.5385,3.5335,3.528,3.5208,3.5181,3.5175,3.5134,3.5252,3.5252,3.5252,3.5252,3.6085,3.5997,3.5931,3.5783,3.5695,3.5563,3.5414,3.538,3.5238,3.5244,3.5204,3.5215,3.5168,3.5127,3.5253,3.5253,3.5253,3.5253,3.5253,3.6048,3.5992,3.5922,3.5759,3.5638,3.5522,3.539,3.5313,3.5238,3.5201,3.5129,3.5128,3.5114,3.5173,3.5173,3.5173,3.5172,3.5172,3.5172,3.6037,3.5957,3.5862,3.5722,3.5641,3.5524,3.5372,3.5285,3.5169,3.5122,3.5121,3.5067,3.5182,3.521,3.5167,3.5168,3.5169,3.5169,3.517,3.5926,3.5939,3.5792,3.5712,3.5536,3.5418,3.5323,3.5153,3.507,3.5005,3.4959,3.5059,3.5034,3.5039,3.5062,3.4982,3.4982,3.4982,3.4982,3.5893,3.5876,3.5706,3.5581,3.545,3.5348,3.517,3.5047,3.4919,3.486,3.486,3.4884,3.4894,3.4862,3.4871,3.4891,3.477,3.477,3.477,3.5818,3.5784,3.5654,3.5541,3.5396,3.5269,3.5097,3.4946,3.4803,3.4759,3.481,3.4819,3.4857,3.4875,3.4831,3.4847,3.4881,0,0]}]]